Lid_Strength_Index
11 14 15 13 12 11 12 12 12 11 13 13 12 12 10 8 10 10 9 8 8 9 8 7 7 7 4 3 4 7 9 7 7 7 7 7 7 7 6 6 6 6 6 6
12 14 11 10 11 12 13 13 12 11 13 14 13 12 11 10 9 9 9 8 9 9 10 9 8 7 6 6 5 6 8 7 7 7 6 6 7 7 6 6 6 6 6 6
12 11 11 10 12 13 13 13 12 12 13 13 14 13 11 9 10 9 9 10 9 9 10 10 9 8 7 7 7 7 7 7 7 7 7 7 7 7 7 7 7 7 7 7
12 10 12 12 13 12 14 10 12 12 13 16 13 18 11 9 10 11 11 11 10 10 10 10 9 8 7 7 7 8 8 8 7 7 7 7 8 8 8 7 7 7 7 7
12 13 14 13 12 11 13 13 13 13 13 14 13 15 13 10 11 11 11 10 10 10 10 10 9 8 8 8 8 8 8 8 7 7 7 8 8 8 8 7 8 7 7 8
12 12 13 12 14 12 12 13 14 14 14 18 15 14 14 11 11 10 10 11 11 11 10 9 8 8 9 8 8 8 8 8 8 8 8 8 8 9 8 8 8 8 8 8
11 12 12 12 15 14 13 15 17 19 19 19 13 15 14 10 10 10 11 12 11 11 10 10 10 10 9 9 9 8 8 9 8 8 8 8 8 8 9 9 9 9 9 9
14 16 12 12 12 13 15 14 16 22 20 17 17 18 14 12 11 11 10 11 11 11 10 11 10 10 10 9 9 9 8 9 9 8 8 8 8 8 8 9 9 9 9 9
14 14 12 13 12 12 14 16 12 16 20 18 15 14 11 12 13 12 11 11 11 11 10 10 10 10 9 9 9 8 9 9 9 8 8 8 9 9 9 9 9 9 9 9
13 16 13 13 12 12 14 12 17 16 21 22 16 15 13 13 13 13 12 12 11 10 10 10 10 9 9 9 9 8 8 9 9 8 8 9 9 9 9 9 9 9 9 9
12 14 15 14 15 15 15 16 15 14 15 19 19 15 11 12 11 12 12 11 11 11 10 10 10 9 9 9 9 9 9 9 9 9 9 9 9 9 9 9 9 9 8 8
11 13 16 15 12 13 12 14 14 17 18 16 16 15 11 11 10 11 11 11 10 10 10 10 9 9 10 10 9 9 9 9 9 9 9 9 8 9 9 8 8 8 8 8
11 14 17 16 14 13 15 13 13 13 14 17 18 15 11 12 11 11 11 10 10 10 10 10 9 10 10 10 10 10 9 9 9 9 9 8 8 8 8 8 8 8 8 8
8 12 14 17 15 14 16 14 13 14 17 16 15 13 11 12 13 12 11 10 10 10 11 10 10 10 10 10 10 10 10 9 9 9 8 8 8 7 7 8 8 8 8 8
10 14 12 13 13 13 14 14 14 15 14 16 14 13 11 9 11 11 10 10 10 11 11 11 11 10 10 9 9 9 9 9 8 8 8 7 7 7 7 8 8 7 8 8
10 13 13 14 12 14 15 13 13 13 13 13 13 13 9 11 11 10 10 10 11 11 11 11 10 9 10 9 9 9 8 8 7 8 7 7 7 8 7 7 8 8 8 8
12 12 14 16 13 14 16 16 14 13 12 13 15 12 10 11 11 11 10 10 10 9 9 10 9 9 9 8 7 8 7 7 7 7 7 7 7 8 8 7 8 8 9 9
12 13 13 16 15 20 12 9 10 12 11 10 11 11 9 10 9 8 7 8 8 9 9 9 9 8 8 6 6 6 7 8 8 9 7 7 8 8 8 8 9 9 9 10
8 11 14 17 17 14 13 11 11 11 12 9 10 9 9 8 10 10 7 6 6 8 8 7 7 8 8 8 7 8 9 10 10 11 10 10 10 10 10 10 11 9 10 10
9 9 13 14 18 19 13 10 8 9 15 8 8 9 9 9 13 11 7 6 6 7 8 8 8 8 9 9 8 9 10 11 11 11 10 10 11 11 11 11 11 10 10 10
13 12 14 15 16 13 9 9 7 15 13 9 8 8 8 9 8 7 8 8 7 9 9 8 9 9 9 9 9 10 10 11 10 10 11 11 11 11 11 11 11 10 11 11
13 14 14 13 16 17 7 8 12 9 7 7 7 8 8 7 7 6 6 7 8 9 10 9 10 10 9 9 9 10 11 10 10 11 11 11 11 11 11 11 11 11 11 11
14 11 12 12 12 8 8 8 7 8 9 8 8 8 8 8 8 8 8 7 7 8 10 10 10 10 10 10 9 10 10 11 11 12 12 11 11 10 11 11 11 11 10 11
9 7 10 11 10 9 8 7 8 6 6 6 6 7 7 7 7 8 8 8 9 9 9 10 10 11 11 11 10 10 10 11 11 11 11 10 11 10 11 10 10 10 10 10
8 8 9 10 8 8 7 7 7 7 6 6 6 6 6 6 7 7 8 8 9 9 9 9 9 9 10 10 10 10 10 11 10 10 10 10 10 10 10 10 9 10 9 9
7 9 10 11 7 7 8 6 6 6 6 6 6 7 6 6 7 7 8 8 8 9 9 10 10 10 10 10 10 10 10 11 11 10 10 9 9 9 9 9 9 8 9 8